BEIDOU IGSO 6

Last updated on April 2, 2019, 3:15 a.m. UTC

1 41434U 16021A   19091.90350080 -.00000115  00000-0  00000+0 0  9998
2 41434  56.4288  65.2649 0033508 202.3572 343.4982  1.00265041 11085
UTC
Height (km)
Latitude
Longitude
Inclination
Orbital Period
UTC large
Height (km)
Speed (km/s)
/
Latitude / Longitude
Inclination (degrees)
Orbital Period (minutes)
Azimuth
Elevation
Range (km)
Doppler Factor
iOS Compass Heading
iOS Angle

Next 30 passes for location: Hong Kong

Rise time Rise Azimuth (degrees) Set time Set Azimuth (degrees) Duration Max altitude (degrees)

No matching passes for this satellites